Location: B�hl
(48.6968°N, 8.1352°E)
Time: 19:42:59
(UTC+00:00)

USA 238 - Pass Details

Date: 08 March 2021
Orbit: 994 x 1218 km, 63.4° (Epoch: 11 April)

Event Time Altitude Azimuth Distance (km) Brightness Sun altitude
Rises 19:35:08 0° 216° (SW) 3,718 6.7 -22.4°
Reaches altitude 10° 19:37:40 10° 215° (SW) 2,787 6.0 -22.8°
Maximum altitude 19:44:14 83° 130° (SE) 1,055 3.5 -23.8°
Drops below altitude 10° 19:51:10 10° 43° (NE) 2,937 5.8 -24.9°
Sets 19:53:54 0° 42° (NE) 3,930 6.5 -25.3°
